Time,TemperatureF,DewpointF,PressureIn,WindDirection,WindDirectionDegrees,WindSpeedMPH,WindSpeedGustMPH,Humidity,HourlyPrecipIn,Conditions,Clouds,dailyrainin,SoftwareType,DateUTC
2013-05-22 00:01:00,68.4,62.3,29.83,North,-999,-999.0,0.0,81,0.00,,---,0.00,VWS V14.01,2013-05-22 04:01:00,
2013-05-22 00:02:00,68.4,62.3,29.83,North,-999,-999.0,0.0,81,0.00,,---,0.00,VWS V14.01,2013-05-22 04:02:00,
2013-05-22 00:04:00,68.2,62.2,29.83,North,-999,-999.0,0.0,81,0.00,,---,0.00,VWS V14.01,2013-05-22 04:04:00,
2013-05-22 00:05:00,68.2,62.2,29.83,North,-999,-999.0,0.0,81,0.00,,---,0.00,VWS V14.01,2013-05-22 04:05:00,
2013-05-22 00:10:00,68.2,62.2,29.83,North,-999,-999.0,0.0,81,0.00,,---,0.00,VWS V14.01,2013-05-22 04:10:00,
2013-05-22 00:15:00,68.0,62.0,29.83,North,-999,-999.0,0.0,81,0.00,,---,0.00,VWS V14.01,2013-05-22 04:15:00,
2013-05-22 00:20:00,68.0,62.0,29.83,North,-999,-999.0,0.0,81,0.00,,---,0.00,VWS V14.01,2013-05-22 04:20:00,
2013-05-22 00:25:00,68.0,62.3,29.82,North,-999,-999.0,0.0,82,0.00,,---,0.00,VWS V14.01,2013-05-22 04:25:00,
2013-05-22 00:30:00,68.0,62.3,29.82,North,-999,-999.0,0.0,82,0.00,,---,0.00,VWS V14.01,2013-05-22 04:30:00,
2013-05-22 00:35:00,67.9,62.2,29.82,North,-999,-999.0,0.0,82,0.00,,---,0.00,VWS V14.01,2013-05-22 04:35:00,
2013-05-22 00:41:00,67.7,62.0,29.82,North,-999,-999.0,0.0,82,0.00,,---,0.00,VWS V14.01,2013-05-22 04:41:00,
2013-05-22 00:46:00,67.7,62.0,29.82,North,-999,-999.0,0.0,82,0.00,,---,0.00,VWS V14.01,2013-05-22 04:46:00,
2013-05-22 00:51:00,67.5,62.2,29.82,North,-999,-999.0,0.0,83,0.00,,---,0.00,VWS V14.01,2013-05-22 04:51:00,
2013-05-22 00:56:00,67.3,62.0,29.82,North,-999,-999.0,0.0,83,0.00,,---,0.00,VWS V14.01,2013-05-22 04:56:00,
2013-05-22 01:01:00,67.1,61.8,29.82,North,-999,-999.0,0.0,83,0.00,,---,0.00,VWS V14.01,2013-05-22 05:01:00,
2013-05-22 01:07:00,67.0,61.7,29.82,North,-999,-999.0,0.0,83,0.00,,---,0.00,VWS V14.01,2013-05-22 05:07:00,
2013-05-22 01:12:00,66.8,61.8,29.82,North,-999,-999.0,0.0,84,0.00,,---,0.00,VWS V14.01,2013-05-22 05:12:00,
2013-05-22 01:17:00,66.6,61.6,29.82,North,-999,-999.0,0.0,84,0.00,,---,0.00,VWS V14.01,2013-05-22 05:17:00,
2013-05-22 01:22:00,66.6,61.6,29.82,North,-999,-999.0,0.0,84,0.00,,---,0.00,VWS V14.01,2013-05-22 05:22:00,
2013-05-22 01:27:00,66.6,61.6,29.82,North,-999,-999.0,0.0,84,0.00,,---,0.00,VWS V14.01,2013-05-22 05:27:00,
2013-05-22 01:32:00,66.4,61.4,29.82,North,-999,-999.0,0.0,84,0.00,,---,0.00,VWS V14.01,2013-05-22 05:32:00,
2013-05-22 01:37:00,66.4,61.4,29.82,North,-999,-999.0,0.0,84,0.00,,---,0.00,VWS V14.01,2013-05-22 05:37:00,
2013-05-22 01:42:00,66.4,61.4,29.82,North,-999,-999.0,0.0,84,0.00,,---,0.00,VWS V14.01,2013-05-22 05:42:00,
2013-05-22 01:47:00,66.6,61.6,29.82,North,-999,-999.0,0.0,84,0.00,,---,0.00,VWS V14.01,2013-05-22 05:47:00,
2013-05-22 01:52:00,66.8,62.2,29.82,North,-999,-999.0,0.0,85,0.00,,---,0.00,VWS V14.01,2013-05-22 05:52:00,
2013-05-22 01:57:00,66.8,61.8,29.82,North,-999,-999.0,0.0,84,0.00,,---,0.00,VWS V14.01,2013-05-22 05:57:00,
2013-05-22 02:03:00,67.0,62.3,29.82,North,-999,-999.0,0.0,85,0.00,,---,0.00,VWS V14.01,2013-05-22 06:03:00,
2013-05-22 02:08:00,67.0,62.3,29.82,North,-999,-999.0,0.0,85,0.00,,---,0.00,VWS V14.01,2013-05-22 06:08:00,
2013-05-22 02:13:00,67.0,62.3,29.82,North,-999,-999.0,0.0,85,0.00,,---,0.00,VWS V14.01,2013-05-22 06:13:00,
2013-05-22 02:17:00,67.0,62.3,29.81,North,-999,-999.0,0.0,85,0.00,,---,0.00,VWS V14.01,2013-05-22 06:17:00,
2013-05-22 02:19:00,67.0,62.3,29.81,North,-999,-999.0,0.0,85,0.00,,---,0.00,VWS V14.01,2013-05-22 06:19:00,
2013-05-22 02:25:00,67.0,62.3,29.81,North,-999,-999.0,0.0,85,0.00,,---,0.00,VWS V14.01,2013-05-22 06:25:00,
2013-05-22 03:00:00,66.6,61.6,29.80,North,-999,-999.0,0.0,84,0.00,,---,0.00,VWS V14.01,2013-05-22 07:00:00,
2013-05-22 03:05:00,66.6,61.6,29.80,North,-999,-999.0,0.0,84,0.00,,---,0.00,VWS V14.01,2013-05-22 07:05:00,
2013-05-22 04:00:00,65.7,61.4,29.78,North,-999,-999.0,0.0,86,0.00,,---,0.00,VWS V14.01,2013-05-22 08:00:00,
2013-05-22 04:05:00,65.7,61.4,29.78,North,-999,-999.0,0.0,86,0.00,,---,0.00,VWS V14.01,2013-05-22 08:05:00,
2013-05-22 04:59:00,65.0,60.7,29.78,North,-999,-999.0,0.0,86,0.00,,---,0.00,VWS V14.01,2013-05-22 08:59:00,
2013-05-22 05:05:00,65.0,60.7,29.78,North,-999,-999.0,0.0,86,0.00,,---,0.00,VWS V14.01,2013-05-22 09:05:00,
2013-05-22 05:10:00,64.8,60.5,29.78,North,-999,-999.0,0.0,86,0.00,,---,0.00,VWS V14.01,2013-05-22 09:10:00,
2013-05-22 05:15:00,64.6,60.3,29.78,North,-999,-999.0,0.0,86,0.00,,---,0.00,VWS V14.01,2013-05-22 09:15:00,
2013-05-22 05:20:00,64.4,60.1,29.78,North,-999,-999.0,0.0,86,0.00,,---,0.00,VWS V14.01,2013-05-22 09:20:00,
2013-05-22 05:25:00,64.3,60.0,29.78,North,-999,-999.0,0.0,86,0.00,,---,0.00,VWS V14.01,2013-05-22 09:25:00,
2013-05-22 05:30:00,64.1,59.8,29.78,North,-999,-999.0,0.0,86,0.00,,---,0.00,VWS V14.01,2013-05-22 09:30:00,
2013-05-22 05:35:00,64.1,59.8,29.78,North,-999,-999.0,0.0,86,0.00,,---,0.00,VWS V14.01,2013-05-22 09:35:00,
2013-05-22 05:41:00,63.9,60.0,29.78,North,-999,-999.0,0.0,87,0.00,,---,0.00,VWS V14.01,2013-05-22 09:41:00,
2013-05-22 05:46:00,63.7,59.8,29.79,North,-999,-999.0,0.0,87,0.00,,---,0.00,VWS V14.01,2013-05-22 09:46:00,
2013-05-22 05:51:00,63.7,59.8,29.79,North,-999,-999.0,0.0,87,0.00,,---,0.00,VWS V14.01,2013-05-22 09:51:00,
2013-05-22 05:56:00,63.5,59.6,29.79,North,-999,-999.0,0.0,87,0.00,,---,0.00,VWS V14.01,2013-05-22 09:56:00,
2013-05-22 06:02:00,63.5,59.6,29.79,North,-999,-999.0,0.0,87,0.00,,---,0.00,VWS V14.01,2013-05-22 10:02:00,
2013-05-22 06:07:00,63.4,59.5,29.79,North,-999,-999.0,0.0,87,0.00,,---,0.00,VWS V14.01,2013-05-22 10:07:00,
2013-05-22 06:12:00,63.4,59.5,29.79,North,-999,-999.0,0.0,87,0.00,,---,0.00,VWS V14.01,2013-05-22 10:12:00,
2013-05-22 06:17:00,63.4,59.5,29.79,North,-999,-999.0,0.0,87,0.00,,---,0.00,VWS V14.01,2013-05-22 10:17:00,
2013-05-22 06:22:00,63.4,59.5,29.80,North,-999,-999.0,0.0,87,0.00,,---,0.00,VWS V14.01,2013-05-22 10:22:00,
2013-05-22 06:27:00,63.4,59.5,29.80,North,-999,-999.0,0.0,87,0.00,,---,0.00,VWS V14.01,2013-05-22 10:27:00,
2013-05-22 06:32:00,63.4,59.5,29.81,North,-999,-999.0,0.0,87,0.00,,---,0.00,VWS V14.01,2013-05-22 10:32:00,
2013-05-22 06:37:00,63.5,59.6,29.81,North,-999,-999.0,0.0,87,0.00,,---,0.00,VWS V14.01,2013-05-22 10:37:00,
2013-05-22 06:42:00,63.7,60.1,29.81,North,-999,-999.0,0.0,88,0.00,,---,0.00,VWS V14.01,2013-05-22 10:42:00,
2013-05-22 06:47:00,63.9,60.3,29.81,North,-999,-999.0,0.0,88,0.00,,---,0.00,VWS V14.01,2013-05-22 10:47:00,
2013-05-22 06:52:00,64.3,60.7,29.81,North,-999,-999.0,0.0,88,0.00,,---,0.00,VWS V14.01,2013-05-22 10:52:00,
2013-05-22 06:57:00,64.4,60.8,29.81,North,-999,-999.0,0.0,88,0.00,,---,0.00,VWS V14.01,2013-05-22 10:57:00,
2013-05-22 07:03:00,64.8,61.2,29.82,North,-999,-999.0,0.0,88,0.00,,---,0.00,VWS V14.01,2013-05-22 11:03:00,
2013-05-22 07:08:00,65.2,61.6,29.82,North,-999,-999.0,0.0,88,0.00,,---,0.00,VWS V14.01,2013-05-22 11:08:00,
2013-05-22 07:13:00,65.3,61.7,29.82,North,-999,-999.0,0.0,88,0.00,,---,0.00,VWS V14.01,2013-05-22 11:13:00,
2013-05-22 07:18:00,65.5,62.2,29.82,North,-999,-999.0,0.0,89,0.00,,---,0.00,VWS V14.01,2013-05-22 11:18:00,
2013-05-22 07:23:00,65.7,62.4,29.82,North,-999,-999.0,0.0,89,0.00,,---,0.00,VWS V14.01,2013-05-22 11:23:00,
2013-05-22 07:28:00,65.9,62.2,29.82,North,-999,-999.0,0.0,88,0.00,,---,0.00,VWS V14.01,2013-05-22 11:28:00,
2013-05-22 07:33:00,65.9,62.2,29.82,North,-999,-999.0,0.0,88,0.00,,---,0.00,VWS V14.01,2013-05-22 11:33:00,
2013-05-22 07:38:00,65.9,62.2,29.82,North,-999,-999.0,0.0,88,0.00,,---,0.00,VWS V14.01,2013-05-22 11:38:00,
2013-05-22 07:43:00,65.9,62.2,29.82,North,-999,-999.0,0.0,88,0.00,,---,0.00,VWS V14.01,2013-05-22 11:43:00,
2013-05-22 07:48:00,66.1,62.5,29.82,North,-999,-999.0,0.0,88,0.00,,---,0.00,VWS V14.01,2013-05-22 11:48:00,
2013-05-22 07:53:00,66.2,62.5,29.82,North,-999,-999.0,0.0,88,0.00,,---,0.00,VWS V14.01,2013-05-22 11:53:00,
2013-05-22 07:58:00,66.2,62.5,29.82,North,-999,-999.0,0.0,88,0.00,,---,0.00,VWS V14.01,2013-05-22 11:58:00,
2013-05-22 08:04:00,66.6,62.9,29.82,North,-999,-999.0,0.0,88,0.00,,---,0.00,VWS V14.01,2013-05-22 12:04:00,
2013-05-22 08:09:00,67.0,63.3,29.82,North,-999,-999.0,0.0,88,0.00,,---,0.00,VWS V14.01,2013-05-22 12:09:00,
2013-05-22 08:14:00,67.1,63.4,29.82,North,-999,-999.0,0.0,88,0.00,,---,0.00,VWS V14.01,2013-05-22 12:14:00,
2013-05-22 08:19:00,67.3,63.6,29.82,North,-999,-999.0,0.0,88,0.00,,---,0.00,VWS V14.01,2013-05-22 12:19:00,
2013-05-22 08:24:00,67.5,63.5,29.82,North,-999,-999.0,0.0,87,0.00,,---,0.00,VWS V14.01,2013-05-22 12:24:00,
2013-05-22 08:29:00,67.9,63.9,29.82,North,-999,-999.0,0.0,87,0.00,,---,0.00,VWS V14.01,2013-05-22 12:29:00,
2013-05-22 08:34:00,68.4,64.1,29.82,North,-999,-999.0,0.0,86,0.00,,---,0.00,VWS V14.01,2013-05-22 12:34:00,
2013-05-22 08:39:00,68.8,64.4,29.82,North,-999,-999.0,0.0,86,0.00,,---,0.00,VWS V14.01,2013-05-22 12:39:00,
2013-05-22 08:44:00,68.9,64.2,29.83,North,-999,-999.0,0.0,85,0.00,,---,0.00,VWS V14.01,2013-05-22 12:44:00,
2013-05-22 08:49:00,69.3,64.3,29.83,North,-999,-999.0,0.0,84,0.00,,---,0.00,VWS V14.01,2013-05-22 12:49:00,
2013-05-22 08:54:00,69.5,64.5,29.83,North,-999,-999.0,0.0,84,0.00,,---,0.00,VWS V14.01,2013-05-22 12:54:00,
2013-05-22 08:59:00,69.8,64.4,29.82,North,-999,-999.0,0.0,83,0.00,,---,0.00,VWS V14.01,2013-05-22 12:59:00,
2013-05-22 09:04:00,70.0,64.3,29.82,North,-999,-999.0,0.0,82,0.00,,---,0.00,VWS V14.01,2013-05-22 13:04:00,
2013-05-22 09:10:00,70.6,64.8,29.82,North,-999,-999.0,0.0,82,0.00,,---,0.00,VWS V14.01,2013-05-22 13:10:00,
2013-05-22 09:15:00,71.1,65.0,29.82,North,-999,-999.0,0.0,81,0.00,,---,0.00,VWS V14.01,2013-05-22 13:15:00,
2013-05-22 09:20:00,71.3,64.8,29.82,North,-999,-999.0,0.0,80,0.00,,---,0.00,VWS V14.01,2013-05-22 13:20:00,
2013-05-22 09:25:00,72.0,65.5,29.82,North,-999,-999.0,0.0,80,0.00,,---,0.00,VWS V14.01,2013-05-22 13:25:00,
2013-05-22 09:30:00,72.4,65.5,29.82,North,-999,-999.0,0.0,79,0.00,,---,0.00,VWS V14.01,2013-05-22 13:30:00,
2013-05-22 09:35:00,72.5,66.0,29.82,North,-999,-999.0,0.0,80,0.00,,---,0.00,VWS V14.01,2013-05-22 13:35:00,
2013-05-22 09:40:00,73.1,66.2,29.82,North,-999,-999.0,0.0,79,0.00,,---,0.00,VWS V14.01,2013-05-22 13:40:00,
2013-05-22 09:45:00,73.4,66.1,29.82,North,-999,-999.0,0.0,78,0.00,,---,0.00,VWS V14.01,2013-05-22 13:45:00,
2013-05-22 09:50:00,74.0,66.7,29.82,North,-999,-999.0,0.0,78,0.00,,---,0.00,VWS V14.01,2013-05-22 13:50:00,
2013-05-22 09:55:00,74.3,66.2,29.82,North,-999,-999.0,0.0,76,0.00,,---,0.00,VWS V14.01,2013-05-22 13:55:00,
2013-05-22 10:00:00,74.3,66.2,29.82,North,-999,-999.0,0.0,76,0.00,,---,0.00,VWS V14.01,2013-05-22 14:00:00,
2013-05-22 10:05:00,74.9,66.4,29.82,North,-999,-999.0,0.0,75,0.00,,---,0.00,VWS V14.01,2013-05-22 14:05:00,
2013-05-22 10:11:00,75.2,66.7,29.81,North,-999,-999.0,0.0,75,0.00,,---,0.00,VWS V14.01,2013-05-22 14:11:00,
2013-05-22 10:16:00,75.8,67.3,29.81,North,-999,-999.0,0.0,75,0.00,,---,0.00,VWS V14.01,2013-05-22 14:16:00,
2013-05-22 10:21:00,76.0,67.1,29.81,North,-999,-999.0,0.0,74,0.00,,---,0.00,VWS V14.01,2013-05-22 14:21:00,
2013-05-22 10:26:00,76.3,66.6,29.81,North,-999,-999.0,0.0,72,0.00,,---,0.00,VWS V14.01,2013-05-22 14:26:00,
2013-05-22 10:31:00,76.3,66.6,29.81,North,-999,-999.0,0.0,72,0.00,,---,0.00,VWS V14.01,2013-05-22 14:31:00,
2013-05-22 10:36:00,76.7,66.6,29.81,North,-999,-999.0,0.0,71,0.00,,---,0.00,VWS V14.01,2013-05-22 14:36:00,
2013-05-22 10:41:00,77.2,67.1,29.81,North,-999,-999.0,0.0,71,0.00,,---,0.00,VWS V14.01,2013-05-22 14:41:00,
2013-05-22 10:46:00,77.6,67.1,29.81,North,-999,-999.0,0.0,70,0.00,,---,0.00,VWS V14.01,2013-05-22 14:46:00,
2013-05-22 10:51:00,77.9,67.3,29.82,North,-999,-999.0,0.0,70,0.00,,---,0.00,VWS V14.01,2013-05-22 14:51:00,
2013-05-22 10:56:00,78.3,66.4,29.82,North,-999,-999.0,0.0,67,0.00,,---,0.00,VWS V14.01,2013-05-22 14:56:00,
2013-05-22 11:01:00,78.3,66.0,29.82,North,-999,-999.0,0.0,66,0.00,,---,0.00,VWS V14.01,2013-05-22 15:01:00,
2013-05-22 11:07:00,78.5,66.2,29.82,North,-999,-999.0,0.0,66,0.00,,---,0.00,VWS V14.01,2013-05-22 15:07:00,
2013-05-22 11:12:00,78.8,66.5,29.82,North,-999,-999.0,0.0,66,0.00,,---,0.00,VWS V14.01,2013-05-22 15:12:00,
2013-05-22 11:17:00,79.2,66.9,29.82,North,-999,-999.0,0.0,66,0.00,,---,0.00,VWS V14.01,2013-05-22 15:17:00,
2013-05-22 11:22:00,81.9,68.5,29.82,North,-999,-999.0,0.0,64,0.00,,---,0.00,VWS V14.01,2013-05-22 15:22:00,
2013-05-22 11:27:00,83.9,70.4,29.82,North,-999,-999.0,0.0,64,0.00,,---,0.00,VWS V14.01,2013-05-22 15:27:00,
2013-05-22 11:32:00,85.7,69.7,29.82,North,-999,-999.0,0.0,59,0.00,,---,0.00,VWS V14.01,2013-05-22 15:32:00,
2013-05-22 11:37:00,86.2,70.2,29.82,North,-999,-999.0,0.0,59,0.00,,---,0.00,VWS V14.01,2013-05-22 15:37:00,
2013-05-22 11:42:00,85.3,68.3,29.82,North,-999,-999.0,0.0,57,0.00,,---,0.00,VWS V14.01,2013-05-22 15:42:00,
2013-05-22 11:47:00,85.3,68.3,29.82,North,-999,-999.0,0.0,57,0.00,,---,0.00,VWS V14.01,2013-05-22 15:47:00,
2013-05-22 11:52:00,85.3,68.9,29.82,North,-999,-999.0,0.0,58,0.00,,---,0.00,VWS V14.01,2013-05-22 15:52:00,
2013-05-22 11:57:00,85.9,69.4,29.82,North,-999,-999.0,0.0,58,0.00,,---,0.00,VWS V14.01,2013-05-22 15:57:00,
2013-05-22 12:03:00,87.5,70.4,29.82,North,-999,-999.0,0.0,57,0.00,,---,0.00,VWS V14.01,2013-05-22 16:03:00,
2013-05-22 12:08:00,87.5,69.9,29.82,North,-999,-999.0,0.0,56,0.00,,---,0.00,VWS V14.01,2013-05-22 16:08:00,
2013-05-22 12:13:00,87.5,70.4,29.82,North,-999,-999.0,0.0,57,0.00,,---,0.00,VWS V14.01,2013-05-22 16:13:00,
2013-05-22 12:18:00,88.2,70.0,29.81,North,-999,-999.0,0.0,55,0.00,,---,0.00,VWS V14.01,2013-05-22 16:18:00,
2013-05-22 12:23:00,88.0,69.3,29.81,North,-999,-999.0,0.0,54,0.00,,---,0.00,VWS V14.01,2013-05-22 16:23:00,
2013-05-22 12:28:00,88.4,69.1,29.81,North,-999,-999.0,0.0,53,0.00,,---,0.00,VWS V14.01,2013-05-22 16:28:00,
2013-05-22 12:33:00,88.4,69.1,29.81,North,-999,-999.0,0.0,53,0.00,,---,0.00,VWS V14.01,2013-05-22 16:33:00,
2013-05-22 12:38:00,87.3,68.6,29.81,North,-999,-999.0,0.0,54,0.00,,---,0.00,VWS V14.01,2013-05-22 16:38:00,
2013-05-22 12:43:00,86.6,68.0,29.81,North,-999,-999.0,0.0,54,0.00,,---,0.00,VWS V14.01,2013-05-22 16:43:00,
2013-05-22 12:48:00,86.4,68.3,29.81,North,-999,-999.0,0.0,55,0.00,,---,0.00,VWS V14.01,2013-05-22 16:48:00,
2013-05-22 12:53:00,87.3,68.6,29.81,North,-999,-999.0,0.0,54,0.00,,---,0.00,VWS V14.01,2013-05-22 16:53:00,
2013-05-22 12:58:00,86.0,68.0,29.81,North,-999,-999.0,0.0,55,0.00,,---,0.00,VWS V14.01,2013-05-22 16:58:00,
2013-05-22 13:04:00,86.2,69.2,29.80,North,-999,-999.0,0.0,57,0.00,,---,0.00,VWS V14.01,2013-05-22 17:04:00,
2013-05-22 13:09:00,88.2,70.5,29.80,North,-999,-999.0,0.0,56,0.00,,---,0.00,VWS V14.01,2013-05-22 17:09:00,
2013-05-22 13:14:00,87.5,69.4,29.79,North,-999,-999.0,0.0,55,0.00,,---,0.00,VWS V14.01,2013-05-22 17:14:00,
2013-05-22 13:19:00,89.1,70.8,29.79,North,-999,-999.0,0.0,55,0.00,,---,0.00,VWS V14.01,2013-05-22 17:19:00,
2013-05-22 13:24:00,90.7,71.2,29.79,North,-999,-999.0,0.0,53,0.00,,---,0.00,VWS V14.01,2013-05-22 17:24:00,
2013-05-22 13:29:00,90.7,70.7,29.79,North,-999,-999.0,0.0,52,0.00,,---,0.00,VWS V14.01,2013-05-22 17:29:00,
2013-05-22 13:34:00,91.4,70.7,29.79,North,-999,-999.0,0.0,51,0.00,,---,0.00,VWS V14.01,2013-05-22 17:34:00,
2013-05-22 13:39:00,91.4,71.3,29.78,North,-999,-999.0,0.0,52,0.00,,---,0.00,VWS V14.01,2013-05-22 17:39:00,
2013-05-22 13:44:00,92.3,71.0,29.78,North,-999,-999.0,0.0,50,0.00,,---,0.00,VWS V14.01,2013-05-22 17:44:00,
2013-05-22 13:49:00,91.4,70.7,29.78,North,-999,-999.0,0.0,51,0.00,,---,0.00,VWS V14.01,2013-05-22 17:49:00,
2013-05-22 13:54:00,92.2,70.9,29.78,North,-999,-999.0,0.0,50,0.00,,---,0.00,VWS V14.01,2013-05-22 17:54:00,
2013-05-22 13:59:00,90.9,70.3,29.77,North,-999,-999.0,0.0,51,0.00,,---,0.00,VWS V14.01,2013-05-22 17:59:00,
2013-05-22 14:05:00,91.1,71.0,29.77,North,-999,-999.0,0.0,52,0.00,,---,0.00,VWS V14.01,2013-05-22 18:05:00,
2013-05-22 14:10:00,91.3,71.2,29.77,North,-999,-999.0,0.0,52,0.00,,---,0.00,VWS V14.01,2013-05-22 18:10:00,
2013-05-22 14:15:00,91.8,70.5,29.77,North,-999,-999.0,0.0,50,0.00,,---,0.00,VWS V14.01,2013-05-22 18:15:00,
2013-05-22 14:20:00,91.6,70.9,29.77,North,-999,-999.0,0.0,51,0.00,,---,0.00,VWS V14.01,2013-05-22 18:20:00,
2013-05-22 14:25:00,90.9,70.3,29.77,North,-999,-999.0,0.0,51,0.00,,---,0.00,VWS V14.01,2013-05-22 18:25:00,
2013-05-22 14:30:00,91.3,70.7,29.77,North,-999,-999.0,0.0,51,0.00,,---,0.00,VWS V14.01,2013-05-22 18:30:00,
2013-05-22 14:35:00,91.1,68.7,29.77,North,-999,-999.0,0.0,48,0.00,,---,0.00,VWS V14.01,2013-05-22 18:35:00,
2013-05-22 14:40:00,89.8,69.8,29.77,North,-999,-999.0,0.0,52,0.00,,---,0.00,VWS V14.01,2013-05-22 18:40:00,
2013-05-22 14:45:00,90.4,69.2,29.76,North,-999,-999.0,0.0,50,0.00,,---,0.00,VWS V14.01,2013-05-22 18:45:00,
2013-05-22 14:50:00,88.9,68.4,29.76,North,-999,-999.0,0.0,51,0.00,,---,0.00,VWS V14.01,2013-05-22 18:50:00,
2013-05-22 14:55:00,88.2,68.9,29.76,North,-999,-999.0,0.0,53,0.00,,---,0.00,VWS V14.01,2013-05-22 18:55:00,
2013-05-22 15:01:00,88.4,69.1,29.76,North,-999,-999.0,0.0,53,0.00,,---,0.00,VWS V14.01,2013-05-22 19:01:00,
2013-05-22 15:06:00,88.7,68.8,29.76,North,-999,-999.0,0.0,52,0.00,,---,0.00,VWS V14.01,2013-05-22 19:06:00,
2013-05-22 15:11:00,89.5,70.1,29.75,North,-999,-999.0,0.0,53,0.00,,---,0.00,VWS V14.01,2013-05-22 19:11:00,
2013-05-22 15:16:00,90.7,70.7,29.75,North,-999,-999.0,0.0,52,0.00,,---,0.00,VWS V14.01,2013-05-22 19:16:00,
2013-05-22 15:21:00,90.7,70.1,29.75,North,-999,-999.0,0.0,51,0.00,,---,0.00,VWS V14.01,2013-05-22 19:21:00,
2013-05-22 15:26:00,88.9,69.6,29.74,North,-999,-999.0,0.0,53,0.00,,---,0.00,VWS V14.01,2013-05-22 19:26:00,
2013-05-22 15:31:00,88.6,68.7,29.74,North,-999,-999.0,0.0,52,0.00,,---,0.00,VWS V14.01,2013-05-22 19:31:00,
2013-05-22 15:36:00,88.9,69.0,29.74,North,-999,-999.0,0.0,52,0.00,,---,0.00,VWS V14.01,2013-05-22 19:36:00,
2013-05-22 15:41:00,89.6,69.7,29.73,North,-999,-999.0,0.0,52,0.00,,---,0.00,VWS V14.01,2013-05-22 19:41:00,
2013-05-22 15:46:00,92.2,70.9,29.73,North,-999,-999.0,0.0,50,0.00,,---,0.00,VWS V14.01,2013-05-22 19:46:00,
2013-05-22 15:51:00,94.0,71.9,29.72,North,-999,-999.0,0.0,49,0.00,,---,0.00,VWS V14.01,2013-05-22 19:51:00,
2013-05-22 15:57:00,94.3,71.6,29.72,North,-999,-999.0,0.0,48,0.00,,---,0.00,VWS V14.01,2013-05-22 19:57:00,
2013-05-22 16:02:00,94.3,70.4,29.72,North,-999,-999.0,0.0,46,0.00,,---,0.00,VWS V14.01,2013-05-22 20:02:00,
2013-05-22 16:07:00,94.1,70.2,29.72,North,-999,-999.0,0.0,46,0.00,,---,0.00,VWS V14.01,2013-05-22 20:07:00,
2013-05-22 16:12:00,92.7,68.9,29.72,North,-999,-999.0,0.0,46,0.00,,---,0.00,VWS V14.01,2013-05-22 20:12:00,
2013-05-22 16:17:00,91.8,69.9,29.72,North,-999,-999.0,0.0,49,0.00,,---,0.00,VWS V14.01,2013-05-22 20:17:00,
2013-05-22 16:22:00,91.1,69.3,29.72,North,-999,-999.0,0.0,49,0.00,,---,0.00,VWS V14.01,2013-05-22 20:22:00,
2013-05-22 16:27:00,92.0,69.5,29.71,North,-999,-999.0,0.0,48,0.00,,---,0.00,VWS V14.01,2013-05-22 20:27:00,
2013-05-22 16:32:00,90.5,68.2,29.71,North,-999,-999.0,0.0,48,0.00,,---,0.00,VWS V14.01,2013-05-22 20:32:00,
2013-05-22 16:37:00,91.1,69.3,29.71,North,-999,-999.0,0.0,49,0.00,,---,0.00,VWS V14.01,2013-05-22 20:37:00,
2013-05-22 16:42:00,90.2,67.9,29.70,North,-999,-999.0,0.0,48,0.00,,---,0.00,VWS V14.01,2013-05-22 20:42:00,
2013-05-22 16:47:00,88.7,67.1,29.70,North,-999,-999.0,0.0,49,0.00,,---,0.00,VWS V14.01,2013-05-22 20:47:00,
2013-05-22 16:52:00,89.1,68.6,29.70,North,-999,-999.0,0.0,51,0.00,,---,0.00,VWS V14.01,2013-05-22 20:52:00,
2013-05-22 16:57:00,91.3,68.9,29.69,North,-999,-999.0,0.0,48,0.00,,---,0.00,VWS V14.01,2013-05-22 20:57:00,
2013-05-22 17:03:00,93.1,69.9,29.70,North,-999,-999.0,0.0,47,0.00,,---,0.00,VWS V14.01,2013-05-22 21:03:00,
2013-05-22 17:08:00,94.0,70.7,29.70,North,-999,-999.0,0.0,47,0.00,,---,0.00,VWS V14.01,2013-05-22 21:08:00,
2013-05-22 17:13:00,92.7,68.3,29.70,North,-999,-999.0,0.0,45,0.00,,---,0.00,VWS V14.01,2013-05-22 21:13:00,
2013-05-22 17:18:00,92.0,68.3,29.70,North,-999,-999.0,0.0,46,0.00,,---,0.00,VWS V14.01,2013-05-22 21:18:00,
2013-05-22 17:23:00,89.8,67.5,29.70,North,-999,-999.0,0.0,48,0.00,,---,0.00,VWS V14.01,2013-05-22 21:23:00,
2013-05-22 17:28:00,88.7,67.1,29.69,North,-999,-999.0,0.0,49,0.00,,---,0.00,VWS V14.01,2013-05-22 21:28:00,
2013-05-22 17:33:00,89.8,68.1,29.69,North,-999,-999.0,0.0,49,0.00,,---,0.00,VWS V14.01,2013-05-22 21:33:00,
2013-05-22 17:38:00,89.6,67.9,29.69,North,-999,-999.0,0.0,49,0.00,,---,0.00,VWS V14.01,2013-05-22 21:38:00,
2013-05-22 17:43:00,89.8,68.1,29.69,North,-999,-999.0,0.0,49,0.00,,---,0.00,VWS V14.01,2013-05-22 21:43:00,
2013-05-22 17:48:00,89.5,68.4,29.69,North,-999,-999.0,0.0,50,0.00,,---,0.00,VWS V14.01,2013-05-22 21:48:00,
2013-05-22 17:53:00,88.6,67.6,29.69,North,-999,-999.0,0.0,50,0.00,,---,0.00,VWS V14.01,2013-05-22 21:53:00,
2013-05-22 17:58:00,87.7,67.9,29.69,North,-999,-999.0,0.0,52,0.00,,---,0.00,VWS V14.01,2013-05-22 21:58:00,
2013-05-22 18:04:00,88.0,68.2,29.69,North,-999,-999.0,0.0,52,0.00,,---,0.00,VWS V14.01,2013-05-22 22:04:00,
2013-05-22 18:09:00,86.8,67.6,29.69,North,-999,-999.0,0.0,53,0.00,,---,0.00,VWS V14.01,2013-05-22 22:09:00,
2013-05-22 18:14:00,86.4,67.8,29.69,North,-999,-999.0,0.0,54,0.00,,---,0.00,VWS V14.01,2013-05-22 22:14:00,
2013-05-22 18:19:00,85.7,67.2,29.69,North,-999,-999.0,0.0,54,0.00,,---,0.00,VWS V14.01,2013-05-22 22:19:00,
2013-05-22 18:24:00,85.3,67.3,29.69,North,-999,-999.0,0.0,55,0.00,,---,0.00,VWS V14.01,2013-05-22 22:24:00,
2013-05-22 18:29:00,85.0,67.6,29.70,North,-999,-999.0,0.0,56,0.00,,---,0.00,VWS V14.01,2013-05-22 22:29:00,
2013-05-22 18:34:00,83.9,67.1,29.70,North,-999,-999.0,0.0,57,0.00,,---,0.00,VWS V14.01,2013-05-22 22:34:00,
2013-05-22 18:39:00,83.5,67.2,29.70,North,-999,-999.0,0.0,58,0.00,,---,0.00,VWS V14.01,2013-05-22 22:39:00,
2013-05-22 18:44:00,81.5,64.3,29.71,North,-999,-999.0,0.0,56,0.03,,---,0.03,VWS V14.01,2013-05-22 22:44:00,
2013-05-22 18:49:00,78.3,64.2,29.72,North,-999,-999.0,0.0,62,0.06,,---,0.06,VWS V14.01,2013-05-22 22:49:00,
2013-05-22 18:54:00,76.7,64.5,29.71,North,-999,-999.0,0.0,66,0.07,,---,0.07,VWS V14.01,2013-05-22 22:54:00,
2013-05-22 18:59:00,76.5,66.0,29.71,North,-999,-999.0,0.0,70,0.08,,---,0.08,VWS V14.01,2013-05-22 22:59:00,
2013-05-22 19:05:00,76.0,65.9,29.71,North,-999,-999.0,0.0,71,0.08,,---,0.08,VWS V14.01,2013-05-22 23:05:00,
2013-05-22 19:10:00,76.0,66.3,29.71,North,-999,-999.0,0.0,72,0.08,,---,0.08,VWS V14.01,2013-05-22 23:10:00,
2013-05-22 19:15:00,76.3,67.0,29.71,North,-999,-999.0,0.0,73,0.08,,---,0.08,VWS V14.01,2013-05-22 23:15:00,
2013-05-22 19:20:00,76.5,67.2,29.71,North,-999,-999.0,0.0,73,0.08,,---,0.08,VWS V14.01,2013-05-22 23:20:00,
2013-05-22 19:25:00,76.5,67.6,29.72,North,-999,-999.0,0.0,74,0.08,,---,0.08,VWS V14.01,2013-05-22 23:25:00,
2013-05-22 19:30:00,76.7,67.8,29.72,North,-999,-999.0,0.0,74,0.08,,---,0.08,VWS V14.01,2013-05-22 23:30:00,
2013-05-22 19:35:00,76.9,68.4,29.72,North,-999,-999.0,0.0,75,0.08,,---,0.08,VWS V14.01,2013-05-22 23:35:00,
2013-05-22 19:40:00,77.0,68.5,29.72,North,-999,-999.0,0.0,75,0.08,,---,0.08,VWS V14.01,2013-05-22 23:40:00,
2013-05-22 19:45:00,76.7,68.6,29.73,North,-999,-999.0,0.0,76,0.05,,---,0.08,VWS V14.01,2013-05-22 23:45:00,
2013-05-22 19:50:00,76.7,68.9,29.72,North,-999,-999.0,0.0,77,0.02,,---,0.08,VWS V14.01,2013-05-22 23:50:00,
2013-05-22 19:55:00,76.5,68.8,29.72,North,-999,-999.0,0.0,77,0.01,,---,0.08,VWS V14.01,2013-05-22 23:55:00,
2013-05-22 20:00:00,76.3,68.9,29.72,North,-999,-999.0,0.0,78,0.00,,---,0.08,VWS V14.01,2013-05-23 00:00:00,
2013-05-22 20:06:00,76.1,68.8,29.72,North,-999,-999.0,0.0,78,0.00,,---,0.08,VWS V14.01,2013-05-23 00:06:00,
2013-05-22 20:11:00,76.0,69.0,29.72,North,-999,-999.0,0.0,79,0.00,,---,0.08,VWS V14.01,2013-05-23 00:11:00,
2013-05-22 20:16:00,75.2,68.6,29.73,North,-999,-999.0,0.0,80,0.00,,---,0.08,VWS V14.01,2013-05-23 00:16:00,
2013-05-22 20:21:00,75.2,69.0,29.73,North,-999,-999.0,0.0,81,0.00,,---,0.08,VWS V14.01,2013-05-23 00:21:00,
2013-05-22 20:26:00,74.9,68.7,29.73,North,-999,-999.0,0.0,81,0.00,,---,0.08,VWS V14.01,2013-05-23 00:26:00,
2013-05-22 20:31:00,74.7,68.5,29.73,North,-999,-999.0,0.0,81,0.00,,---,0.08,VWS V14.01,2013-05-23 00:31:00,
2013-05-22 20:36:00,74.7,68.8,29.74,North,-999,-999.0,0.0,82,0.00,,---,0.08,VWS V14.01,2013-05-23 00:36:00,
2013-05-22 20:41:00,74.3,68.4,29.74,North,-999,-999.0,0.0,82,0.00,,---,0.08,VWS V14.01,2013-05-23 00:41:00,
2013-05-22 20:46:00,73.8,68.0,29.74,North,-999,-999.0,0.0,82,0.00,,---,0.08,VWS V14.01,2013-05-23 00:46:00,
2013-05-22 20:51:00,73.3,66.0,29.74,North,-999,-999.0,0.0,78,0.00,,---,0.08,VWS V14.01,2013-05-23 00:51:00,
2013-05-22 20:56:00,72.7,65.4,29.74,North,-999,-999.0,0.0,78,0.00,,---,0.08,VWS V14.01,2013-05-23 00:56:00,
2013-05-22 21:02:00,72.4,64.8,29.74,North,-999,-999.0,0.0,77,0.00,,---,0.08,VWS V14.01,2013-05-23 01:02:00,
2013-05-22 21:07:00,72.0,64.8,29.74,North,-999,-999.0,0.0,78,0.00,,---,0.08,VWS V14.01,2013-05-23 01:07:00,
2013-05-22 21:12:00,71.6,64.8,29.75,North,-999,-999.0,0.0,79,0.00,,---,0.08,VWS V14.01,2013-05-23 01:12:00,
2013-05-22 21:17:00,71.6,64.8,29.75,North,-999,-999.0,0.0,79,0.00,,---,0.08,VWS V14.01,2013-05-23 01:17:00,
2013-05-22 21:22:00,71.3,64.5,29.75,North,-999,-999.0,0.0,79,0.00,,---,0.08,VWS V14.01,2013-05-23 01:22:00,
2013-05-22 21:27:00,71.1,64.3,29.75,North,-999,-999.0,0.0,79,0.00,,---,0.08,VWS V14.01,2013-05-23 01:27:00,
2013-05-22 21:32:00,70.9,64.4,29.74,North,-999,-999.0,0.0,80,0.00,,---,0.08,VWS V14.01,2013-05-23 01:32:00,
2013-05-22 21:37:00,70.6,64.1,29.75,North,-999,-999.0,0.0,80,0.00,,---,0.08,VWS V14.01,2013-05-23 01:37:00,
2013-05-22 21:42:00,70.4,63.9,29.74,North,-999,-999.0,0.0,80,0.00,,---,0.08,VWS V14.01,2013-05-23 01:42:00,
2013-05-22 21:47:00,70.2,64.1,29.75,North,-999,-999.0,0.0,81,0.00,,---,0.08,VWS V14.01,2013-05-23 01:47:00,
2013-05-22 21:52:00,69.8,63.7,29.75,North,-999,-999.0,0.0,81,0.00,,---,0.08,VWS V14.01,2013-05-23 01:52:00,
2013-05-22 21:57:00,69.7,64.0,29.74,North,-999,-999.0,0.0,82,0.00,,---,0.08,VWS V14.01,2013-05-23 01:57:00,
2013-05-22 22:03:00,69.5,63.8,29.75,North,-999,-999.0,0.0,82,0.00,,---,0.08,VWS V14.01,2013-05-23 02:03:00,
2013-05-22 22:08:00,69.3,63.6,29.76,North,-999,-999.0,0.0,82,0.00,,---,0.08,VWS V14.01,2013-05-23 02:08:00,
2013-05-22 22:13:00,69.1,63.4,29.76,North,-999,-999.0,0.0,82,0.00,,---,0.08,VWS V14.01,2013-05-23 02:13:00,
2013-05-22 22:18:00,68.9,63.5,29.77,North,-999,-999.0,0.0,83,0.00,,---,0.08,VWS V14.01,2013-05-23 02:18:00,
2013-05-22 22:23:00,68.8,63.4,29.77,North,-999,-999.0,0.0,83,0.00,,---,0.08,VWS V14.01,2013-05-23 02:23:00,
2013-05-22 22:28:00,68.8,63.8,29.77,North,-999,-999.0,0.0,84,0.00,,---,0.08,VWS V14.01,2013-05-23 02:28:00,
2013-05-22 22:33:00,68.8,63.8,29.77,North,-999,-999.0,0.0,84,0.00,,---,0.08,VWS V14.01,2013-05-23 02:33:00,
2013-05-22 22:38:00,68.9,63.9,29.78,North,-999,-999.0,0.0,84,0.00,,---,0.08,VWS V14.01,2013-05-23 02:38:00,
2013-05-22 22:43:00,69.1,64.1,29.81,North,-999,-999.0,0.0,84,0.00,,---,0.08,VWS V14.01,2013-05-23 02:43:00,
2013-05-22 22:48:00,69.1,63.4,29.82,North,-999,-999.0,0.0,82,0.00,,---,0.08,VWS V14.01,2013-05-23 02:48:00,
2013-05-22 22:54:00,68.6,62.2,29.83,North,-999,-999.0,0.0,80,0.05,,---,0.13,VWS V14.01,2013-05-23 02:54:00,
2013-05-22 22:59:00,67.0,61.0,29.82,North,-999,-999.0,0.0,81,0.41,,---,0.48,VWS V14.01,2013-05-23 02:59:00,
2013-05-22 23:05:00,65.7,60.4,29.81,North,-999,-999.0,0.0,83,0.55,,---,0.63,VWS V14.01,2013-05-23 03:05:00,
2013-05-22 23:10:00,65.0,60.0,29.80,North,-999,-999.0,0.0,84,0.55,,---,0.63,VWS V14.01,2013-05-23 03:10:00,
2013-05-22 23:15:00,64.8,60.2,29.79,North,-999,-999.0,0.0,85,0.55,,---,0.63,VWS V14.01,2013-05-23 03:15:00,
2013-05-22 23:20:00,64.8,60.2,29.78,North,-999,-999.0,0.0,85,0.55,,---,0.63,VWS V14.01,2013-05-23 03:20:00,
2013-05-22 23:25:00,64.6,60.0,29.78,North,-999,-999.0,0.0,85,0.56,,---,0.64,VWS V14.01,2013-05-23 03:25:00,
2013-05-22 23:30:00,64.4,59.8,29.78,North,-999,-999.0,0.0,85,0.56,,---,0.64,VWS V14.01,2013-05-23 03:30:00,
2013-05-22 23:35:00,64.4,59.8,29.78,North,-999,-999.0,0.0,85,0.56,,---,0.64,VWS V14.01,2013-05-23 03:35:00,
2013-05-22 23:40:00,64.4,60.1,29.78,North,-999,-999.0,0.0,86,0.56,,---,0.64,VWS V14.01,2013-05-23 03:40:00,
2013-05-22 23:45:00,64.4,60.1,29.78,North,-999,-999.0,0.0,86,0.57,,---,0.65,VWS V14.01,2013-05-23 03:45:00,
2013-05-22 23:51:00,64.4,60.1,29.78,North,-999,-999.0,0.0,86,0.57,,---,0.65,VWS V14.01,2013-05-23 03:51:00,
2013-05-22 23:56:00,64.4,60.1,29.79,North,-999,-999.0,0.0,86,0.41,,---,0.65,VWS V14.01,2013-05-23 03:56:00,